IGO762K VOBL-VOHS

Flight info

Callsign IGO762K
Flight time 0h 43m
Altitude 33000
Route LATID8A LATID Q22 SAKRO SARKA6
Aircraft A320/M-SDE3FGHIRWY/LB1

Departure

Time 2026-04-21 06:43
Airport Kempegowda International Airport Bengaluru (VOBL)

Arrival

Time 2026-04-21 07:26
Airport Rajiv Gandhi International Airport (VOHS)
Time Latitude Longitude Altitude Speed Heading
2026-04-21 06:20 13.20170 77.71039 3011 ft 0 kts 180°
2026-04-21 06:32 13.20174 77.71039 3014 ft 2 kts 179°
2026-04-21 06:33 13.20190 77.71039 3014 ft 2 kts 180°
2026-04-21 06:33 13.20207 77.71039 3013 ft 2 kts 181°
2026-04-21 06:33 13.20223 77.71039 3012 ft 2 kts 181°
2026-04-21 06:33 13.20240 77.71038 3013 ft 2 kts 151°
2026-04-21 06:34 13.20253 77.71028 3011 ft 2 kts 120°
2026-04-21 06:34 13.20260 77.71013 3011 ft 2 kts 102°
2026-04-21 06:34 13.20262 77.71001 3011 ft 1 kts 93°
2026-04-21 06:34 13.20262 77.70999 3011 ft 0 kts 92°
2026-04-21 06:35 13.20262 77.71000 3011 ft 0 kts 92°
2026-04-21 06:36 13.20262 77.71010 3011 ft 3 kts 91°
2026-04-21 06:36 13.20262 77.71041 3011 ft 6 kts 90°
2026-04-21 06:36 13.20261 77.71091 3011 ft 9 kts 90°
2026-04-21 06:36 13.20260 77.71162 3011 ft 11 kts 90°
2026-04-21 06:37 13.20266 77.71251 3011 ft 13 kts 65°
2026-04-21 06:37 13.20348 77.71276 3011 ft 13 kts
2026-04-21 06:37 13.20443 77.71277 3011 ft 14 kts
2026-04-21 06:37 13.20523 77.71316 3011 ft 14 kts 73°
2026-04-21 06:38 13.20524 77.71420 3011 ft 15 kts 90°
2026-04-21 06:38 13.20522 77.71528 3011 ft 16 kts 91°
2026-04-21 06:38 13.20522 77.71640 3012 ft 16 kts 89°
2026-04-21 06:38 13.20521 77.71755 3012 ft 16 kts 91°
2026-04-21 06:39 13.20520 77.71875 3012 ft 17 kts 90°
2026-04-21 06:39 13.20519 77.71997 3012 ft 18 kts 91°
2026-04-21 06:39 13.20518 77.72127 3012 ft 14 kts 90°
2026-04-21 06:39 13.20517 77.72220 3012 ft 14 kts 91°
2026-04-21 06:40 13.20567 77.72286 3011 ft 9 kts 358°
2026-04-21 06:40 13.20577 77.72286 3016 ft 0 kts
2026-04-21 06:41 13.20582 77.72286 3014 ft 2 kts 360°
2026-04-21 06:41 13.20604 77.72286 3011 ft 5 kts
2026-04-21 06:41 13.20651 77.72278 3015 ft 9 kts 338°
2026-04-21 06:41 13.20689 77.72222 3012 ft 11 kts 276°
2026-04-21 06:42 13.20690 77.72184 3012 ft 7 kts 271°
2026-04-21 06:42 13.20693 77.71903 3011 ft 75 kts 270°
2026-04-21 06:42 13.20699 77.71160 3012 ft 130 kts 270°
2026-04-21 06:42 13.20709 77.70076 3014 ft 172 kts 270°
2026-04-21 06:43 13.20718 77.68815 3532 ft 177 kts 279°
2026-04-21 06:43 13.21080 77.67592 4057 ft 181 kts 295°
2026-04-21 06:43 13.21673 77.66442 4607 ft 189 kts 301°
2026-04-21 06:43 13.22404 77.65232 4909 ft 210 kts 302°
2026-04-21 06:44 13.23230 77.63903 5134 ft 232 kts 302°
2026-04-21 06:44 13.24163 77.62475 5400 ft 253 kts 311°
2026-04-21 06:44 13.25658 77.61414 5755 ft 274 kts 342°
2026-04-21 06:44 13.27570 77.61304 6435 ft 281 kts 13°
2026-04-21 06:45 13.29467 77.61825 7272 ft 284 kts 17°
2026-04-21 06:45 13.31375 77.62362 8142 ft 285 kts 17°
2026-04-21 06:45 13.33294 77.62897 9001 ft 286 kts 18°
2026-04-21 06:45 13.35223 77.63432 9866 ft 288 kts 18°
2026-04-21 06:46 13.37202 77.63984 10320 ft 305 kts 18°
2026-04-21 06:46 13.39322 77.64578 10588 ft 325 kts 18°
2026-04-21 06:46 13.41539 77.65198 11135 ft 333 kts 18°
2026-04-21 06:46 13.43761 77.65817 11776 ft 338 kts 18°
2026-04-21 06:47 13.46046 77.66450 12386 ft 343 kts 17°
2026-04-21 06:47 13.48360 77.67092 13024 ft 347 kts 17°
2026-04-21 06:47 13.50706 77.67744 13658 ft 351 kts 17°
2026-04-21 06:47 13.53077 77.68405 14209 ft 355 kts 17°
2026-04-21 06:48 13.55475 77.69073 14758 ft 359 kts 17°
2026-04-21 06:48 13.57897 77.69749 15298 ft 363 kts 16°
2026-04-21 06:48 13.60345 77.70434 15858 ft 366 kts 16°
2026-04-21 06:48 13.62818 77.71124 16415 ft 370 kts 16°
2026-04-21 06:49 13.65314 77.71820 16965 ft 374 kts 16°
2026-04-21 06:49 13.67835 77.72525 17508 ft 377 kts 15°
2026-04-21 06:49 13.70382 77.73238 18044 ft 381 kts 15°
2026-04-21 06:49 13.72958 77.73957 18525 ft 385 kts 15°
2026-04-21 06:50 13.75557 77.74681 18961 ft 390 kts 15°
2026-04-21 06:50 13.78190 77.75414 19422 ft 393 kts 15°
2026-04-21 06:50 13.80723 77.76120 19865 ft 397 kts 15°
2026-04-21 06:50 13.83399 77.76867 20336 ft 400 kts 15°
2026-04-21 06:51 13.86102 77.77623 20788 ft 404 kts 15°
2026-04-21 06:51 13.88827 77.78387 21230 ft 408 kts 15°
2026-04-21 06:51 13.91578 77.79159 21665 ft 412 kts 15°
2026-04-21 06:51 13.94353 77.79940 22097 ft 415 kts 15°
2026-04-21 06:52 13.97152 77.80729 22537 ft 419 kts 15°
2026-04-21 06:52 13.99978 77.81524 22962 ft 423 kts 14°
2026-04-21 06:52 14.02832 77.82325 23385 ft 426 kts 14°
2026-04-21 06:52 14.05705 77.83127 23757 ft 430 kts 14°
2026-04-21 06:53 14.08609 77.83934 24096 ft 434 kts 14°
2026-04-21 06:53 14.11534 77.84746 24442 ft 437 kts 14°
2026-04-21 06:53 14.14484 77.85565 24781 ft 441 kts 14°
2026-04-21 06:53 14.17455 77.86394 25124 ft 444 kts 14°
2026-04-21 06:54 14.20444 77.87233 25468 ft 447 kts 14°
2026-04-21 06:54 14.23459 77.88083 25804 ft 451 kts 14°
2026-04-21 06:54 14.26497 77.88940 26153 ft 454 kts 13°
2026-04-21 06:54 14.29554 77.89803 26488 ft 457 kts 13°
2026-04-21 06:55 14.32631 77.90670 26821 ft 460 kts 13°
2026-04-21 06:55 14.35726 77.91540 27144 ft 463 kts 13°
2026-04-21 06:55 14.38847 77.92414 27468 ft 466 kts 13°
2026-04-21 06:55 14.41985 77.93294 27787 ft 469 kts 13°
2026-04-21 06:56 14.45148 77.94183 28108 ft 472 kts 13°
2026-04-21 06:56 14.48341 77.95004 28444 ft 473 kts
2026-04-21 06:56 14.51554 77.95558 28777 ft 476 kts
2026-04-21 06:56 14.54874 77.96116 29141 ft 479 kts
2026-04-21 06:57 14.58100 77.96654 29468 ft 482 kts
2026-04-21 06:57 14.61434 77.97213 29812 ft 485 kts
2026-04-21 06:57 14.64732 77.97769 30103 ft 489 kts
2026-04-21 06:57 14.68095 77.98338 30385 ft 491 kts
2026-04-21 06:58 14.71475 77.98913 30646 ft 494 kts
2026-04-21 06:58 14.74882 77.99494 30909 ft 497 kts
2026-04-21 06:58 14.78305 78.00076 31186 ft 500 kts
2026-04-21 06:58 14.81753 78.00659 31456 ft 503 kts
2026-04-21 06:59 14.85214 78.01244 31836 ft 504 kts
2026-04-21 06:59 14.88668 78.01829 32210 ft 504 kts
2026-04-21 06:59 14.92128 78.02415 32573 ft 505 kts
2026-04-21 06:59 14.95607 78.03001 32831 ft 507 kts
2026-04-21 07:00 14.99090 78.03590 32887 ft 508 kts
2026-04-21 07:00 15.06067 78.04778 32889 ft 508 kts
2026-04-21 07:01 15.13045 78.05969 32881 ft 508 kts
2026-04-21 07:01 15.23514 78.07748 32887 ft 509 kts
2026-04-21 07:02 15.30498 78.08935 32889 ft 508 kts
2026-04-21 07:02 15.37482 78.10117 32895 ft 509 kts
2026-04-21 07:03 15.44474 78.11269 32890 ft 509 kts
2026-04-21 07:03 15.51467 78.12407 32901 ft 508 kts
2026-04-21 07:04 15.57270 78.13342 32907 ft 508 kts
2026-04-21 07:04 15.64265 78.14477 32925 ft 509 kts
2026-04-21 07:05 15.71165 78.15607 32584 ft 493 kts
2026-04-21 07:05 15.74522 78.16163 32335 ft 484 kts
2026-04-21 07:05 15.78940 78.16893 32006 ft 478 kts
2026-04-21 07:06 15.81112 78.17249 31845 ft 475 kts
2026-04-21 07:06 15.84362 78.17781 31601 ft 471 kts
2026-04-21 07:06 15.87592 78.18304 31363 ft 468 kts
2026-04-21 07:06 15.90793 78.18826 31120 ft 464 kts
2026-04-21 07:07 15.93973 78.19350 30889 ft 461 kts
2026-04-21 07:07 15.97124 78.19870 30517 ft 457 kts
2026-04-21 07:07 16.00266 78.20391 29976 ft 456 kts
2026-04-21 07:07 16.03393 78.20906 29404 ft 454 kts
2026-04-21 07:08 16.06504 78.21410 28896 ft 451 kts
2026-04-21 07:08 16.09587 78.21911 28404 ft 447 kts
2026-04-21 07:08 16.12605 78.22407 27918 ft 443 kts
2026-04-21 07:08 16.15639 78.22905 27454 ft 439 kts
2026-04-21 07:09 16.18689 78.23401 26983 ft 436 kts
2026-04-21 07:09 16.21666 78.23888 26573 ft 431 kts
2026-04-21 07:09 16.24614 78.24374 26157 ft 427 kts
2026-04-21 07:09 16.27490 78.24850 25747 ft 423 kts
2026-04-21 07:10 16.30433 78.25334 25319 ft 420 kts
2026-04-21 07:10 16.33314 78.25806 24894 ft 418 kts
2026-04-21 07:10 16.36146 78.26269 24462 ft 417 kts
2026-04-21 07:10 16.39006 78.26739 24032 ft 415 kts
2026-04-21 07:11 16.41880 78.27212 23579 ft 414 kts
2026-04-21 07:11 16.44721 78.27678 23065 ft 412 kts
2026-04-21 07:11 16.47546 78.28143 22590 ft 409 kts
2026-04-21 07:11 16.50342 78.28604 22130 ft 405 kts
2026-04-21 07:12 16.53117 78.29059 21664 ft 402 kts
2026-04-21 07:12 16.55872 78.29510 21192 ft 399 kts
2026-04-21 07:12 16.58558 78.29952 20736 ft 397 kts
2026-04-21 07:12 16.61326 78.30409 20257 ft 394 kts
2026-04-21 07:13 16.64028 78.30857 19800 ft 391 kts
2026-04-21 07:13 16.66702 78.31298 19313 ft 388 kts
2026-04-21 07:13 16.69357 78.31737 18871 ft 386 kts
2026-04-21 07:13 16.71994 78.32174 18412 ft 384 kts
2026-04-21 07:14 16.74617 78.32606 17962 ft 380 kts
2026-04-21 07:14 16.77215 78.33035 17533 ft 375 kts
2026-04-21 07:14 16.79795 78.33462 17013 ft 373 kts
2026-04-21 07:14 16.82348 78.33885 16527 ft 371 kts
2026-04-21 07:15 16.84876 78.34305 16054 ft 368 kts
2026-04-21 07:15 16.87389 78.34722 15598 ft 365 kts
2026-04-21 07:15 16.89862 78.35134 15097 ft 353 kts
2026-04-21 07:15 16.92242 78.35529 14656 ft 342 kts
2026-04-21 07:16 16.94519 78.35904 14227 ft 342 kts
2026-04-21 07:16 16.96875 78.36292 13795 ft 343 kts
2026-04-21 07:16 16.99196 78.36674 13305 ft 342 kts
2026-04-21 07:16 17.00783 78.36936 13008 ft 341 kts
2026-04-21 07:17 17.01157 78.36999 12948 ft 340 kts 10°
2026-04-21 07:17 17.03508 78.37410 12493 ft 338 kts
2026-04-21 07:17 17.05829 78.37798 12062 ft 336 kts
2026-04-21 07:17 17.08107 78.38171 11618 ft 335 kts
2026-04-21 07:18 17.10386 78.38614 11177 ft 333 kts 18°
2026-04-21 07:18 17.12398 78.39758 10749 ft 331 kts 41°
2026-04-21 07:18 17.13798 78.41636 10319 ft 329 kts 64°
2026-04-21 07:18 17.14340 78.43928 10110 ft 322 kts 86°
2026-04-21 07:19 17.14395 78.46229 9993 ft 310 kts 88°
2026-04-21 07:19 17.14437 78.48428 9553 ft 299 kts 88°
2026-04-21 07:19 17.14477 78.50589 8954 ft 296 kts 88°
2026-04-21 07:19 17.14518 78.52730 8336 ft 294 kts 87°
2026-04-21 07:20 17.14560 78.54857 7726 ft 292 kts 88°
2026-04-21 07:20 17.14602 78.56970 7202 ft 287 kts 87°
2026-04-21 07:20 17.14641 78.58992 7013 ft 270 kts 88°
2026-04-21 07:20 17.14801 78.60876 6870 ft 250 kts 71°
2026-04-21 07:21 17.15613 78.62375 6654 ft 233 kts 43°
2026-04-21 07:21 17.16992 78.63155 6326 ft 222 kts
2026-04-21 07:21 17.18512 78.63305 5970 ft 219 kts
2026-04-21 07:21 17.20033 78.63338 5571 ft 218 kts 359°
2026-04-21 07:22 17.21533 78.63226 5168 ft 216 kts 340°
2026-04-21 07:22 17.22720 78.62335 4789 ft 212 kts 303°
2026-04-21 07:22 17.23131 78.60881 4391 ft 212 kts 270°
2026-04-21 07:22 17.23110 78.59378 4209 ft 199 kts 269°
2026-04-21 07:23 17.23083 78.57969 3901 ft 189 kts 269°
2026-04-21 07:23 17.23063 78.56621 3595 ft 179 kts 269°
2026-04-21 07:23 17.23046 78.55344 3620 ft 173 kts 269°
2026-04-21 07:23 17.23030 78.54107 3559 ft 162 kts 269°
2026-04-21 07:24 17.23015 78.52977 3418 ft 150 kts 269°
2026-04-21 07:24 17.23002 78.51956 3270 ft 146 kts 268°
2026-04-21 07:24 17.22987 78.50890 3095 ft 144 kts 269°
2026-04-21 07:24 17.22974 78.49848 2924 ft 143 kts 269°
2026-04-21 07:25 17.22960 78.48825 2736 ft 143 kts 269°
2026-04-21 07:25 17.22950 78.47791 2548 ft 142 kts 269°
2026-04-21 07:25 17.22941 78.46742 2340 ft 142 kts 267°
2026-04-21 07:25 17.22910 78.45746 2151 ft 139 kts 269°
2026-04-21 07:26 17.22902 78.44732 2004 ft 139 kts 269°
2026-04-21 07:26 17.22891 78.43818 1980 ft 104 kts 268°
2026-04-21 07:26 17.22882 78.43242 1981 ft 55 kts 269°
2026-04-21 07:26 17.22930 78.43008 1981 ft 22 kts 294°
2026-04-21 07:27 17.22985 78.42903 1981 ft 6 kts 300°
2026-04-21 07:27 17.23011 78.42857 1979 ft 2 kts 301°
2026-04-21 07:27 17.23015 78.42851 1979 ft 0 kts 301°
2026-04-21 07:28 17.23021 78.42840 1980 ft 3 kts 300°
2026-04-21 07:28 17.23035 78.42815 1981 ft 5 kts 300°
2026-04-21 07:28 17.23057 78.42776 1980 ft 7 kts 300°
2026-04-21 07:28 17.23094 78.42737 1980 ft 8 kts 335°
2026-04-21 07:29 17.23158 78.42729 1981 ft 10 kts 359°
2026-04-21 07:29 17.23239 78.42728 1981 ft 13 kts 359°
2026-04-21 07:29 17.23315 78.42710 1980 ft 11 kts 311°
2026-04-21 07:29 17.23325 78.42636 1980 ft 10 kts 267°
2026-04-21 07:30 17.23324 78.42558 1980 ft 11 kts 270°
2026-04-21 07:30 17.23324 78.42522 1980 ft 5 kts 270°
2026-04-21 07:30 17.23342 78.42495 1981 ft 6 kts 346°
2026-04-21 07:30 17.23384 78.42494 1981 ft 6 kts 360°
2026-04-21 07:31 17.23419 78.42494 1980 ft 2 kts 359°